WGS F4 (USA 233)

Last updated on Tue Mar 03 2026 00:02:51 GMT+0000 (Coordinated Universal Time)

1 38070U 12003A 26061.53429909 -.00000231 00000+0 00000+0 0 9995 2 38070 0.0092 132.6935 0000821 140.8594 167.4632 1.00269465 43078
UTC large
Height (km)
Speed (km/s)
/
Latitude / Longitude
Inclination (degrees)
Orbital Period (minutes)
Azimuth
Elevation
Range (km)
Doppler Factor

Next 0 passes for location: London (51.5072 / 0.1276)

Sorry there are no passes over London.